Change the Weather History Date:

Tuesday, March 12, 2013

  Actual Average Record
Temperature  
Mean Temperature 34 °F 35 °F  
Max Temperature 50 °F 48 °F 76 °F (2007)
Min Temperature 18 °F 22 °F -23 °F (1950)
Degree Days  
Heating Degree Days 31    
Month to date heating degree days 418  
Since 1 July heating degree days 6150  
Cooling Degree Days 0    
Month to date cooling degree days 0  
Year to date cooling degree days 0  
Moisture  
Dew Point 21 °F    
Average Humidity 62    
Maximum Humidity 84    
Minimum Humidity 39    
Precipitation  
Precipitation 0.00 in 0.02 in 0.30 in (1957)
Month to date precipitation 0.04 0.28  
Year to date precipitation 0.35 1.19  
Snow  
Snow 0.00 in 0.30 in 4.60 in (1957)
Month to date snowfall 0.2 2.8  
Since 1 July snowfall 18.1 25.1  
Snow Depth 0.00 in    
Sea Level Pressure  
Sea Level Pressure 30.23 in    
Wind  
Wind Speed 3 mph (SSE)    
Max Wind Speed 17 mph    
Max Gust Speed 21 mph    
Visibility 10 miles    
Events      
T = Trace of Precipitation, MM = Missing Value Source: NWS Daily Summary

Daily Weather History Graph

Daily Weather History Graph

Search for Another Location

Airport or City:

Trip Planner

Search our weather history database for the weather conditions in past years. The results will help you decide how hot, cold, wet, or windy it might be!

Date:

Astronomy

Mar. 12, 2013 Rise Set
Actual Time 7:42 AM MDT 7:26 PM MDT
Civil Twilight 7:12 AM MDT 7:56 PM MDT
Nautical Twilight 6:38 AM MDT 8:31 PM MDT
Astronomical Twilight 6:03 AM MDT 9:06 PM MDT
Moon 7:45 AM MDT (3/12) 8:52 PM MDT (3/12)
Length of Visible Light 12h 43m
Length of Day
11h 44m
New Moon, 1% of the Moon is Illuminated
Mar 12
New Moon
Mar 19
First Quarter
Mar 27
Full
Apr 2
Last Quarter
Apr 10
New

Hourly Weather History & Observations

Time (MDT) Temp. Windchill Dew Point Humidity Pressure Visibility Wind Dir Wind Speed Gust Speed Precip Events Conditions
12:56 AM 21.9 °F 14.5 °F 15.1 °F 75% 30.34 in 10.0 mi West 5.8 mph - N/A   Clear
1:56 AM 19.9 °F 13.4 °F 14.0 °F 78% 30.33 in 10.0 mi Variable 4.6 mph - N/A   Clear
2:56 AM 18.0 °F 12.7 °F 12.9 °F 81% 30.34 in 10.0 mi SSE 3.5 mph - N/A   Clear
3:56 AM 21.0 °F - 14.0 °F 74% 30.32 in 10.0 mi Calm Calm - N/A   Mostly Cloudy
4:56 AM 19.9 °F 12.1 °F 15.1 °F 81% 30.32 in 10.0 mi ESE 5.8 mph - N/A   Overcast
5:56 AM 21.0 °F - 15.1 °F 78% 30.32 in 10.0 mi Calm Calm - N/A   Overcast
6:56 AM 21.9 °F - 17.1 °F 82% 30.32 in 10.0 mi Calm Calm - N/A   Overcast
7:56 AM 21.9 °F 17.2 °F 17.1 °F 82% 30.32 in 10.0 mi SE 3.5 mph - N/A   Overcast
8:56 AM 25.0 °F - 16.0 °F 69% 30.30 in 10.0 mi Calm Calm - N/A   Overcast
9:56 AM 27.0 °F - 17.1 °F 66% 30.31 in 10.0 mi Calm Calm - N/A   Overcast
10:56 AM 30.0 °F - 18.0 °F 61% 30.29 in 10.0 mi Calm Calm - N/A   Overcast
11:56 AM 32.0 °F - 18.0 °F 56% 30.27 in 10.0 mi Calm Calm - N/A   Overcast
12:56 PM 37.0 °F - 21.0 °F 52% 30.25 in 10.0 mi Calm Calm - N/A   Overcast
1:56 PM 39.9 °F 36.7 °F 23.0 °F 51% 30.23 in 10.0 mi East 4.6 mph - N/A   Overcast
2:56 PM 44.1 °F 40.8 °F 25.0 °F 47% 30.18 in 10.0 mi ESE 5.8 mph - N/A   Overcast
3:56 PM 48.0 °F - 24.1 °F 39% 30.14 in 10.0 mi Calm Calm - N/A   Overcast
4:56 PM 45.0 °F 40.1 °F 28.9 °F 53% 30.14 in 10.0 mi ESE 9.2 mph - N/A   Overcast
5:56 PM 50.0 °F - 27.0 °F 41% 30.11 in 10.0 mi SW 9.2 mph - N/A   Overcast
6:56 PM 48.0 °F - 27.0 °F 44% 30.11 in 10.0 mi SSW 5.8 mph - N/A   Overcast
7:56 PM 46.9 °F - 26.1 °F 44% 30.12 in 10.0 mi SW 10.4 mph - N/A   Scattered Clouds
8:56 PM 46.0 °F 42.5 °F 26.1 °F 46% 30.12 in 10.0 mi SW 6.9 mph - N/A   Clear
9:56 PM 41.0 °F 37.1 °F 27.0 °F 57% 30.15 in 10.0 mi ESE 5.8 mph - N/A   Scattered Clouds
10:56 PM 48.9 °F - 24.1 °F 38% 30.13 in 10.0 mi Calm Calm - N/A   Overcast
11:56 PM 41.0 °F 39.0 °F 28.0 °F 60% 30.17 in 10.0 mi East 3.5 mph - N/A   Overcast